HIMAWARI-9

Last updated on Mon Sep 21 2026 00:02:41 GMT+0000 (Coordinated Universal Time)

1 41836U 16064A 26262.93794703 .00000000 00000+0 00000+0 0 9997 2 41836 0.0166 151.6282 0001900 79.4703 246.1576 1.00269983 36167
UTC large
Height (km)
Speed (km/s)
/
Latitude / Longitude
Inclination (degrees)
Orbital Period (minutes)
Azimuth
Elevation
Range (km)
Doppler Factor

Next 0 passes for location: London (51.5072 / 0.1276)

No passes found over London.
HIMAWARI-9